Regional Weather Roundup
Issued by NWS Portland, ME

Home | Current Version | Previous Version | Text Only | Print | Product List | Glossary On
Versions: 1 2 3 4 5 6 7 8 9 10 11 12 13 14 15 16 17 18 19 20 21 22 23 24 25 26 27 28 29 30 31 32 33 34 35 36 37 38 39 40 41 42 43 44 45 46 47 48 49 50
000
ASUS41 KGYX 240610
RWRGYX
WEATHER ROUNDUP FOR MAINE AND NEW HAMPSHIRE
NATIONAL WEATHER SERVICE GRAY ME
200 AM EDT MON APR 24 2017

MEZ002-005-006-010-012-015-018-020-021-024-026-027-029-240700-
MAINE

CITY           SKY/WX    TMP DP  RH WIND       PRES   REMARKS
PORTLAND       CLEAR     43  39  86 CALM      30.02F
6HR MIN TEMP:  40; 6HR MAX TEMP:  46;

SANFORD        CLEAR     37  36  96 SW6       30.04
BAR HARBOR     CLEAR     41  40  96 S13       30.03
WISCASSET      CLEAR     38  37  97 CALM      30.04S
6HR MIN TEMP:  38; 6HR MAX TEMP:  47;

ROCKLAND       CLEAR     43  41  93 SW7       30.03F
FRYEBURG       CLEAR     33  33 100 CALM      30.02S FOG
6HR MIN TEMP:  34; 6HR MAX TEMP:  54;

LEWISTONAUBURN CLEAR     35  33  92 CALM      30.02S
AUGUSTA        CLEAR     40  37  89 VRB3      30.01F
6HR MIN TEMP:  39; 6HR MAX TEMP:  47;

WATERVILLE     CLEAR     38  38 100 W6        29.99R
BANGOR         CLEAR     39  37  92 NW10      30.03R
6HR MIN TEMP:  39; 6HR MAX TEMP:  45;

GREENVILLE       N/A     39  37  92 NW5       29.98R
6HR MIN TEMP:  39; 6HR MAX TEMP:  51;

MILLINOCKET    CLEAR     42  38  85 W3        30.01R
6HR MIN TEMP:  39; 6HR MAX TEMP:  49;

HOULTON        CLOUDY    41  39  93 SW5       29.97S
6HR MIN TEMP:  41; 6HR MAX TEMP:  47;

PRESQUE ISLE   CLOUDY    42  38  85 CALM      29.98R
6HR MIN TEMP:  42; 6HR MAX TEMP:  48; 6HR PCP: TRACE;

FRENCHVILLE    CLOUDY    33  27  78 MISG      29.97R
6HR MIN TEMP:  33; 6HR MAX TEMP:  46; 6HR PCP:  0.06;

CARIBOU        CLOUDY    40  36  86 N8        29.96R
6HR MIN TEMP:  40; 6HR MAX TEMP:  49; 6HR PCP:  0.03;

$$

NHZ002-005-008-009-011-012-014-240700-
NEW HAMPSHIRE

CITY           SKY/WX    TMP DP  RH WIND       PRES   REMARKS
PORTSMOUTH     CLEAR     48  39  70 SW8       30.03S
ROCHESTER      CLEAR     44  38  79 CALM      30.03S
6HR MIN TEMP:  43; 6HR MAX TEMP:  50;

NASHUA         CLEAR     44  41  89 CALM      30.08R
MANCHESTER     PTCLDY    49  38  65 S6        30.05S
6HR MIN TEMP:  49; 6HR MAX TEMP:  62;

CONCORD        CLEAR     40  37  89 NE5       30.05R
6HR MIN TEMP:  40; 6HR MAX TEMP:  61;

LACONIA        CLEAR     46  35  65 CALM      30.03S
PLYMOUTH       FAIR      36  35  98 CALM      30.04R
BERLIN         CLEAR     30  26  85 CALM      30.02R
6HR MIN TEMP:  30; 6HR MAX TEMP:  50;

WHITEFIELD     CLEAR     32  29  88 CALM      30.04R
6HR MIN TEMP:  32; 6HR MAX TEMP:  50;

JAFFREY        CLEAR     43  40  89 S8        30.08S
6HR MIN TEMP:  41; 6HR MAX TEMP:  56;

KEENE          CLEAR     39  37  92 CALM      30.09S
LEBANON        CLEAR     38  34  85 SE3       30.04S
6HR MIN TEMP:  37; 6HR MAX TEMP:  54;

MT WASHINGTON  PTCLDY    28  23  80 W60         N/A  WCI   8
6HR MIN TEMP:  28; 6HR MAX TEMP:  34;

$$

VTZ005-007-008-240700-
VERMONT

CITY           SKY/WX    TMP DP  RH WIND       PRES   REMARKS
ST JOHNSBURY     N/A     39  36  89 MISG      30.04R
MONTPELIER     CLEAR     50  27  40 NW9       30.08S
BURLINGTON     CLEAR     50  38  63 N6        30.08R
$$

MAZ007-012-024-CTZ003-RIZ002-NYZ038-NYZ072-240700-
SOUTHERN NEW ENGLAND AND NY

CITY           SKY/WX    TMP DP  RH WIND       PRES   REMARKS
BOSTON         CLEAR     46  38  73 SW8       30.10S
WORCESTER      CLOUDY    44  36  73 SW13      30.09S
NANTUCKET      MOCLDY    45  42  89 SW10      30.15S
PROVIDENCE     CLEAR     43  40  89 S3        30.14S
HARTFORD       PTCLDY    44  40  85 S8        30.11F
ALBANY         PTCLDY    45  36  70 CALM      30.08S
NEW YORK CITY  MOCLDY    52  40  63 S3        30.12F
$$

ANZ081-ANZ082-ANZ150-NHZ014-MEZ023>029-240700-
COASTAL MARINE OBSERVATIONS

STATION/POSITION TIME  TEMP    WIND        PRES    WAVE
                       AIR SEA DIR/SP/G            HT/PER
                 (UTC) (F)     (DEG/KT/KT) (MB)    (FT/S)
MOUNT DESERT ROC 0600   42                 1017.1F
MATINICUS ROCK   0500   43     210/ 19/ 21 1016.9F
ISLE OF SHOALS   0500   49     220/ 19/ 19 1017.1F
JEFFREYS LEDGE   0506      44                N/A     5/12
CASHES LEDGE BUO 0550   43 42              1017.6F   6/ 5
GEORGES BANK BUO 0550   41 40              1021.7F   5/ 9
$$

.............KEY..............
   WCI - WIND CHILL
   TC  - TEMPERATURE IN CELSIUS
   VSB - VISIBILITY IN MILES
   HX  - HEAT INDEX
   FAIR- INDICATES FEW OR NO CLOUDS BELOW 12,000 FT, WITH NO
         SIGNIFICANT WEATHER AND/OR OBSTRUCTIONS TO VISIBILITY.





USA.gov is the U.S. government's official web portal to all federal, state and local government web resources and services.